Date String (YYYY-MM-DD hh:mm:ss) UTC,Instrument flags,Ambient pressure (hPa),Sample flow (lpm),Bypass flow (lpm),Sample temperature (°C),Ambient temperature (°C),ASC tube jacket temperature (°C),LED temperature (°C),Box temperature (°C),Sample RH (%),Span deviation,Mass concentration (μg/m³),Mass concentration (μg/m³),Mass concentration (μg/m³)
DateTimeUTC,F1_M11,P_M11,Q1_M11,Q2_M11,T1_M11,T2_M11,T3_M11,T4_M11,T5_M11,U1_M11,ZSPAN_M11,X0_M11,X2_M11,X1_M11
2022-09-20 10:00:00,,0827.0,4.99,0.00,30.4,29.0,00.0,39.1,32.2,11.8,0000.0,0002.33,0001.80,0001.51
2022-09-20 10:01:00,,0827.0,5.00,0.00,30.4,29.0,00.0,39.2,32.2,11.8,0000.0,0002.36,0001.82,0001.51
2022-09-20 10:02:00,,0827.1,5.02,0.00,30.4,29.1,00.0,39.2,32.2,11.8,0000.0,0002.39,0001.83,0001.52
2022-09-20 10:03:00,,0827.1,4.99,0.00,30.4,29.1,00.0,39.2,32.2,11.8,0000.0,0002.40,0001.84,0001.53
2022-09-20 10:04:00,,0827.1,5.01,0.00,30.5,29.1,00.0,39.2,32.2,11.7,0000.0,0002.42,0001.85,0001.55
2022-09-20 10:05:00,,0827.1,5.00,0.00,30.5,29.1,00.0,39.2,32.2,11.7,0000.0,0002.44,0001.85,0001.56
2022-09-20 10:06:00,,0827.1,5.01,0.00,30.5,29.1,00.0,39.2,32.2,11.7,0000.0,0002.52,0001.86,0001.57
2022-09-20 10:07:00,,0827.1,4.98,0.00,30.5,29.1,00.0,39.2,32.3,11.7,0000.0,0002.65,0001.88,0001.58
2022-09-20 10:08:00,,0827.1,5.01,0.00,30.5,29.1,00.0,39.2,32.3,11.7,0000.0,0003.47,0001.87,0001.57
2022-09-20 10:09:00,,0827.1,4.99,0.00,30.5,29.1,00.0,39.2,32.3,11.7,0000.0,0003.82,0001.84,0001.57
2022-09-20 10:10:00,,0827.2,5.01,0.00,30.5,29.1,00.0,39.3,32.3,11.6,0000.0,0003.74,0001.80,0001.56
2022-09-20 10:11:00,,0827.2,4.99,0.00,30.5,29.1,00.0,39.3,32.3,11.6,0000.0,0003.73,0001.80,0001.57
2022-09-20 10:12:00,,0827.2,5.01,0.00,30.5,29.1,00.0,39.3,32.3,11.7,0000.0,0003.63,0001.78,0001.58
2022-09-20 10:13:00,,0827.2,4.99,0.00,30.5,29.2,00.0,39.3,32.3,11.7,0000.0,0003.64,0001.80,0001.60
2022-09-20 10:14:00,,0827.2,5.01,0.00,30.5,29.2,00.0,39.3,32.3,11.7,0000.0,0003.70,0001.84,0001.61
2022-09-20 10:15:00,,0827.2,4.99,0.00,30.6,29.2,00.0,39.3,32.3,11.7,0000.0,0003.71,0001.86,0001.63
2022-09-20 10:16:00,,0827.2,5.01,0.00,30.6,29.1,00.0,39.3,32.3,11.8,0000.0,0003.65,0001.86,0001.63
2022-09-20 10:17:00,,0827.2,4.99,0.00,30.6,29.2,00.0,39.3,32.4,11.8,0000.0,0003.61,0001.87,0001.64
2022-09-20 10:18:00,,0827.3,5.01,0.00,30.6,29.2,00.0,39.3,32.3,11.8,0000.0,0003.54,0001.87,0001.63
2022-09-20 10:19:00,,0827.2,4.99,0.00,30.6,29.2,00.0,39.3,32.4,11.8,0000.0,0003.06,0001.88,0001.63
2022-09-20 10:20:00,,0827.2,5.01,0.00,30.6,29.2,00.0,39.3,32.4,11.8,0000.0,0002.44,0001.90,0001.63
2022-09-20 10:21:00,,0827.3,4.99,0.00,30.6,29.2,00.0,39.4,32.4,11.8,0000.0,0002.48,0001.92,0001.64
2022-09-20 10:22:00,,0827.2,5.01,0.00,30.6,29.2,00.0,39.4,32.4,11.8,0000.0,0002.49,0001.94,0001.65
2022-09-20 10:23:00,,0827.3,4.98,0.00,30.6,29.2,00.0,39.4,32.4,11.8,0000.0,0002.51,0001.95,0001.65
2022-09-20 10:24:00,,0827.2,5.02,0.00,30.6,29.2,00.0,39.4,32.4,11.8,0000.0,0002.74,0001.92,0001.65
2022-09-20 10:25:00,,0827.2,5.00,0.00,30.6,29.2,00.0,39.4,32.4,11.8,0000.0,0003.22,0001.88,0001.65
2022-09-20 10:26:00,,0827.3,5.00,0.00,30.7,29.2,00.0,39.4,32.4,11.8,0000.0,0003.21,0001.88,0001.64
2022-09-20 10:27:00,,0827.3,5.00,0.00,30.7,29.2,00.0,39.4,32.4,11.8,0000.0,0003.23,0001.90,0001.64
2022-09-20 10:28:00,,0827.3,4.99,0.00,30.7,29.2,00.0,39.4,32.4,11.8,0000.0,0003.22,0001.91,0001.66
2022-09-20 10:29:00,,0827.3,5.02,0.00,30.7,29.2,00.0,39.4,32.4,11.9,0000.0,0003.28,0001.94,0001.68
2022-09-20 10:30:00,,0827.4,5.00,0.00,30.7,29.2,00.0,39.4,32.4,11.9,0000.0,0004.31,0001.94,0001.69
2022-09-20 10:31:00,,0827.4,5.00,0.00,30.7,29.3,00.0,39.4,32.5,11.9,0000.0,0004.80,0001.95,0001.71
2022-09-20 10:32:00,,0827.4,5.00,0.00,30.7,29.3,00.0,39.4,32.5,11.9,0000.0,0005.04,0001.93,0001.70
2022-09-20 10:33:00,,0827.4,4.99,0.00,30.7,29.3,00.0,39.5,32.4,11.8,0000.0,0005.16,0001.94,0001.71
2022-09-20 10:34:00,,0827.4,5.01,0.00,30.7,29.3,00.0,39.5,32.5,11.8,0000.0,0005.18,0001.94,0001.72
2022-09-20 10:35:00,,0827.4,4.99,0.00,30.7,29.3,00.0,39.5,32.5,11.8,0000.0,0004.88,0001.96,0001.72
2022-09-20 10:36:00,,0827.4,5.01,0.00,30.7,29.3,00.0,39.5,32.5,11.8,0000.0,0004.42,0002.00,0001.72
2022-09-20 10:37:00,,0827.4,4.99,0.00,30.7,29.3,00.0,39.5,32.5,11.8,0000.0,0004.47,0002.01,0001.71
2022-09-20 10:38:00,,0827.4,5.01,0.00,30.7,29.3,00.0,39.5,32.5,11.8,0000.0,0004.47,0002.00,0001.71
2022-09-20 10:39:00,,0827.4,4.99,0.00,30.7,29.3,00.0,39.5,32.5,11.9,0000.0,0004.46,0001.98,0001.69
2022-09-20 10:40:00,,0827.4,5.00,0.00,30.8,28.6,00.0,39.5,32.5,11.8,0000.0,0004.38,0001.95,0001.69
2022-09-20 10:41:00,,0827.4,5.00,0.00,30.7,27.2,00.0,39.4,32.4,11.9,0000.0,0003.27,0001.98,0001.69
2022-09-20 10:42:00,,0827.4,5.00,0.00,30.6,26.9,00.0,39.4,32.3,12.1,0000.0,0003.98,0001.97,0001.69
2022-09-20 10:43:00,,0827.4,5.00,0.00,30.5,27.0,00.0,39.3,32.0,12.0,0000.0,0004.06,0002.00,0001.70
2022-09-20 10:44:00,,0827.4,5.00,0.00,30.4,27.4,00.0,39.3,31.9,12.2,0000.0,0004.01,0002.00,0001.68
2022-09-20 10:45:00,,0827.4,5.01,0.00,30.4,27.6,00.0,39.2,31.9,12.2,0000.0,0003.96,0001.97,0001.68
2022-09-20 10:46:00,,0827.5,5.01,0.00,30.3,27.9,00.0,39.2,31.9,12.2,0000.0,0004.05,0001.97,0001.67
2022-09-20 10:47:00,,0827.4,4.99,0.00,30.3,28.1,00.0,39.2,32.0,12.2,0000.0,0004.04,0001.96,0001.67
2022-09-20 10:48:00,,0827.4,5.00,0.00,30.3,28.2,00.0,39.2,32.0,12.3,0000.0,0003.97,0001.93,0001.67
2022-09-20 10:49:00,,0827.4,5.01,0.00,30.3,28.3,00.0,39.1,32.0,12.3,0000.0,0004.00,0001.94,0001.66
2022-09-20 10:50:00,,0827.4,4.99,0.00,30.3,28.4,00.0,39.1,32.0,12.3,0000.0,0003.99,0001.95,0001.67
2022-09-20 10:51:00,,0827.4,5.01,0.00,30.3,28.5,00.0,39.1,32.0,12.3,0000.0,0004.53,0001.96,0001.67
2022-09-20 10:52:00,,0827.4,4.98,0.00,30.3,28.6,00.0,39.1,32.0,12.3,0000.0,0004.58,0001.95,0001.67
2022-09-20 10:53:00,,0827.4,5.02,0.00,30.3,28.7,00.0,39.1,32.0,12.4,0000.0,0003.84,0001.97,0001.67
2022-09-20 10:54:00,,0827.5,4.99,0.00,30.3,28.7,00.0,39.1,32.0,12.5,0000.0,0003.23,0001.99,0001.66
2022-09-20 10:55:00,,0827.4,5.01,0.00,30.3,28.8,00.0,39.1,32.1,12.5,0000.0,0003.23,0001.99,0001.66
2022-09-20 10:56:00,,0827.4,4.99,0.00,30.3,28.8,00.0,39.1,32.1,12.3,0000.0,0004.59,0002.03,0001.68
2022-09-20 10:57:00,,0827.4,5.01,0.00,30.3,28.8,00.0,39.1,32.0,12.3,0000.0,0004.53,0002.04,0001.69
2022-09-20 10:58:00,,0827.5,4.99,0.00,30.3,28.8,00.0,39.1,32.1,12.5,0000.0,0005.62,0002.04,0001.69
2022-09-20 10:59:00,,0827.5,5.01,0.00,30.3,28.8,00.0,39.1,32.1,12.5,0000.0,0005.95,0002.03,0001.69
